Time,TemperatureF,DewpointF,PressureIn,WindDirection,WindDirectionDegrees,WindSpeedMPH,WindSpeedGustMPH,Humidity,HourlyPrecipIn,Conditions,Clouds,dailyrainin,SoftwareType,DateUTC
2013-11-05 00:11:00,28.0,17.0,30.01,North,6,0.0,0.0,63,0.00,,,0.00,,2013-11-05 08:11:00,
2013-11-05 00:22:00,28.0,18.0,30.02,North,6,0.0,0.0,65,0.00,,,0.00,,2013-11-05 08:22:00,
2013-11-05 00:42:00,28.0,18.0,30.02,North,6,0.0,0.0,65,0.00,,,0.00,,2013-11-05 08:42:00,
2013-11-05 00:52:00,28.0,17.0,30.02,North,6,0.0,0.0,64,0.00,,,0.00,,2013-11-05 08:52:00,
2013-11-05 01:22:00,27.0,16.0,30.03,North,6,0.0,0.0,64,0.00,,,0.00,,2013-11-05 09:22:00,
2013-11-05 01:43:00,27.0,16.0,30.03,North,6,0.0,0.0,64,0.00,,,0.00,,2013-11-05 09:43:00,
2013-11-05 01:53:00,27.0,16.0,30.03,North,6,0.0,0.0,64,0.00,,,0.00,,2013-11-05 09:53:00,
2013-11-05 02:13:00,27.0,16.0,30.03,North,6,0.0,0.0,64,0.00,,,0.00,,2013-11-05 10:13:00,
2013-11-05 02:23:00,27.0,16.0,30.04,North,6,0.0,0.0,64,0.00,,,0.00,,2013-11-05 10:23:00,
2013-11-05 02:42:00,26.0,16.0,30.03,North,6,0.0,0.0,64,0.00,,,0.00,,2013-11-05 10:42:00,
2013-11-05 02:53:00,27.0,16.0,30.04,ENE,59,0.0,0.0,62,0.00,,,0.00,,2013-11-05 10:53:00,
2013-11-05 03:12:00,27.0,15.0,30.04,North,3,0.0,0.0,61,0.00,,,0.00,,2013-11-05 11:12:00,
2013-11-05 03:22:00,28.0,16.0,30.05,NNE,18,0.0,0.0,59,0.00,,,0.00,,2013-11-05 11:22:00,
2013-11-05 03:52:00,29.0,14.0,30.07,East,79,0.0,0.0,54,0.00,,,0.00,,2013-11-05 11:52:00,
2013-11-05 04:22:00,28.0,13.0,30.07,NE,41,0.0,0.0,53,0.00,,,0.00,,2013-11-05 12:22:00,
2013-11-05 04:42:00,27.0,13.0,30.07,NE,38,0.0,0.0,54,0.00,,,0.00,,2013-11-05 12:42:00,
2013-11-05 04:52:00,28.0,14.0,30.07,North,8,0.0,0.0,54,0.00,,,0.00,,2013-11-05 12:52:00,
2013-11-05 05:11:00,27.0,13.0,30.07,North,10,0.0,0.0,54,0.00,,,0.00,,2013-11-05 13:11:00,
2013-11-05 05:21:00,27.0,12.0,30.07,North,10,0.0,0.0,53,0.00,,,0.00,,2013-11-05 13:21:00,
2013-11-05 05:42:00,27.0,12.0,30.07,NE,34,0.0,4.0,53,0.00,,,0.00,,2013-11-05 13:42:00,
2013-11-05 05:52:00,27.0,12.0,30.07,NE,48,0.0,0.0,53,0.00,,,0.00,,2013-11-05 13:52:00,
2013-11-05 06:22:00,27.0,11.0,30.08,NNE,25,0.0,0.0,51,0.00,,,0.00,,2013-11-05 14:22:00,
2013-11-05 06:52:00,26.0,11.0,30.10,NNE,16,0.0,0.0,52,0.00,,,0.00,,2013-11-05 14:52:00,
2013-11-05 07:21:00,26.0,10.0,30.11,NE,41,0.0,0.0,51,0.00,,,0.00,,2013-11-05 15:21:00,
2013-11-05 07:53:00,29.0,13.0,30.12,NE,55,0.0,0.0,51,0.00,,,0.00,,2013-11-05 15:53:00,
2013-11-05 08:13:00,33.0,17.0,30.12,NNE,18,0.0,0.0,51,0.00,,,0.00,,2013-11-05 16:13:00,
2013-11-05 08:23:00,35.0,9.0,30.13,NNE,18,0.0,5.0,34,0.00,,,0.00,,2013-11-05 16:23:00,
2013-11-05 08:52:00,37.0,8.0,30.13,ENE,68,0.0,0.0,29,0.00,,,0.00,,2013-11-05 16:52:00,
2013-11-05 09:22:00,38.0,6.0,30.14,NE,52,1.0,2.0,26,0.00,,,0.00,,2013-11-05 17:22:00,
2013-11-05 09:42:00,40.0,8.0,30.14,NNW,339,0.0,1.0,26,0.00,,,0.00,,2013-11-05 17:42:00,
2013-11-05 09:52:00,40.0,8.0,30.15,East,100,0.0,1.0,26,0.00,,,0.00,,2013-11-05 17:52:00,
2013-11-05 10:22:00,40.0,5.0,30.15,ESE,114,0.0,5.0,23,0.00,,,0.00,,2013-11-05 18:22:00,
2013-11-05 10:52:00,41.0,4.0,30.16,North,0,0.0,6.0,21,0.00,,,0.00,,2013-11-05 18:52:00,
2013-11-05 11:21:00,43.0,5.0,30.16,NNE,21,0.0,2.0,20,0.00,,,0.00,,2013-11-05 19:21:00,
2013-11-05 11:52:00,43.0,5.0,30.16,NE,54,0.0,4.0,20,0.00,,,0.00,,2013-11-05 19:52:00,
2013-11-05 12:22:00,45.0,-3.0,30.15,East,83,1.0,2.0,13,0.00,,,0.00,,2013-11-05 20:22:00,
2013-11-05 12:52:00,47.0,-5.0,30.14,ESE,102,1.0,4.0,11,0.00,,,0.00,,2013-11-05 20:52:00,
2013-11-05 13:21:00,49.0,-5.0,30.13,East,93,0.0,0.0,10,0.00,,,0.00,,2013-11-05 21:21:00,
2013-11-05 13:43:00,49.0,-7.0,30.13,NNE,23,0.0,2.0,9,0.00,,,0.00,,2013-11-05 21:43:00,
2013-11-05 13:54:00,50.0,-9.0,30.14,ENE,75,0.0,5.0,8,0.00,,,0.00,,2013-11-05 21:54:00,
2013-11-05 14:23:00,50.0,-4.0,30.14,NNE,23,1.0,5.0,10,0.00,,,0.00,,2013-11-05 22:23:00,
2013-11-05 14:43:00,49.0,-5.0,30.15,NNE,14,1.0,0.0,10,0.00,,,0.00,,2013-11-05 22:43:00,
2013-11-05 14:53:00,49.0,-5.0,30.15,NE,45,0.0,0.0,10,0.00,,,0.00,,2013-11-05 22:53:00,
2013-11-05 15:22:00,49.0,-12.0,30.15,North,10,0.0,2.0,7,0.00,,,0.00,,2013-11-05 23:22:00,
2013-11-05 15:42:00,49.0,-12.0,30.15,NNE,14,1.0,2.0,7,0.00,,,0.00,,2013-11-05 23:42:00,
2013-11-05 15:53:00,49.0,-12.0,30.15,East,82,0.0,0.0,7,0.00,,,0.00,,2013-11-05 23:53:00,
2013-11-05 16:12:00,48.0,-13.0,30.16,NNE,20,0.0,1.0,7,0.00,,,0.00,,2013-11-06 00:12:00,
2013-11-05 16:21:00,48.0,-10.0,30.16,NNE,20,0.0,0.0,8,0.00,,,0.00,,2013-11-06 00:21:00,
2013-11-05 16:42:00,46.0,-7.0,30.16,North,11,0.0,0.0,10,0.00,,,0.00,,2013-11-06 00:42:00,
2013-11-05 16:52:00,44.0,-9.0,30.16,NNE,13,0.0,0.0,10,0.00,,,0.00,,2013-11-06 00:52:00,
2013-11-05 17:21:00,40.0,-8.0,30.17,NNE,18,0.0,0.0,12,0.00,,,0.00,,2013-11-06 01:21:00,
2013-11-05 17:42:00,38.0,-10.0,30.17,NNE,18,0.0,0.0,12,0.00,,,0.00,,2013-11-06 01:42:00,
2013-11-05 17:52:00,37.0,-9.0,30.18,NNE,18,0.0,0.0,13,0.00,,,0.00,,2013-11-06 01:52:00,
2013-11-05 18:22:00,34.0,-6.0,30.18,NNE,18,0.0,0.0,17,0.00,,,0.00,,2013-11-06 02:22:00,
2013-11-05 18:42:00,33.0,-3.0,30.19,NNE,18,0.0,0.0,21,0.00,,,0.00,,2013-11-06 02:42:00,
2013-11-05 18:52:00,33.0,-10.0,30.19,NNE,18,0.0,0.0,15,0.00,,,0.00,,2013-11-06 02:52:00,
2013-11-05 19:22:00,32.0,-9.0,30.20,NNE,18,0.0,0.0,16,0.00,,,0.00,,2013-11-06 03:22:00,
2013-11-05 19:43:00,32.0,-13.0,30.19,NNE,18,0.0,0.0,13,0.00,,,0.00,,2013-11-06 03:43:00,
2013-11-05 19:54:00,32.0,-15.0,30.19,NNE,18,0.0,0.0,12,0.00,,,0.00,,2013-11-06 03:54:00,
2013-11-05 20:13:00,32.0,-15.0,30.20,NNE,18,0.0,0.0,12,0.00,,,0.00,,2013-11-06 04:13:00,
2013-11-05 20:23:00,32.0,-15.0,30.20,NNE,18,0.0,0.0,12,0.00,,,0.00,,2013-11-06 04:23:00,
2013-11-05 20:43:00,32.0,-15.0,30.21,NNE,18,0.0,0.0,12,0.00,,,0.00,,2013-11-06 04:43:00,
2013-11-05 20:53:00,31.0,-16.0,30.21,NNE,18,0.0,0.0,12,0.00,,,0.00,,2013-11-06 04:53:00,
2013-11-05 21:13:00,31.0,-14.0,30.22,NNE,18,0.0,0.0,13,0.00,,,0.00,,2013-11-06 05:13:00,
2013-11-05 21:23:00,31.0,-14.0,30.22,NNE,18,0.0,0.0,13,0.00,,,0.00,,2013-11-06 05:23:00,
2013-11-05 21:43:00,31.0,-16.0,30.22,NNE,18,0.0,0.0,12,0.00,,,0.00,,2013-11-06 05:43:00,
2013-11-05 21:53:00,31.0,-16.0,30.22,NNE,18,0.0,1.0,12,0.00,,,0.00,,2013-11-06 05:53:00,
2013-11-05 22:22:00,30.0,-15.0,30.22,NNE,14,0.0,0.0,13,0.00,,,0.00,,2013-11-06 06:22:00,
2013-11-05 22:42:00,30.0,-15.0,30.22,NNE,14,0.0,0.0,13,0.00,,,0.00,,2013-11-06 06:42:00,
2013-11-05 22:52:00,31.0,-21.0,30.22,NNE,14,0.0,0.0,9,0.00,,,0.00,,2013-11-06 06:52:00,
2013-11-05 23:12:00,31.0,-21.0,30.23,NNE,14,0.0,0.0,9,0.00,,,0.00,,2013-11-06 07:12:00,
2013-11-05 23:42:00,32.0,-18.0,30.23,NNE,14,0.0,0.0,10,0.00,,,0.00,,2013-11-06 07:42:00,
2013-11-05 23:52:00,30.0,-16.0,30.23,NNE,14,0.0,0.0,12,0.00,,,0.00,,2013-11-06 07:52:00,